Regional Weather Roundup
Issued by NWS

Home | Current Version | Previous Version | Text Only | Print | Product List | Glossary On
Versions: 1 2 3 4 5 6 7 8 9 10 11 12 13 14 15 16 17 18 19 20 21 22 23 24 25 26 27 28 29 30 31 32 33 34 35 36 37 38 39 40 41 42 43 44 45 46 47 48 49 50
000
ASUS43 KDTX 182010
RWRMI
MICHIGAN HOURLY REGIONAL WEATHER ROUNDUP
NATIONAL WEATHER SERVICE DETROIT/PONTIAC MI
400 PM EDT THU SEP 18 2014

NOTE: "FAIR" INDICATES FEW OR NO CLOUDS BELOW 12,000 FEET WITH NO
SIGNIFICANT WEATHER AND/OR OBSTRUCTION TO VISIBILITY.

MIZ047>049-052>055-059>063-066>070-074>076-081>083-182100-
SOUTHEAST LOWER MICHIGAN

CITY           SKY/WX    TMP DP  RH WIND       PRES   REMARKS
ADRIAN         PTSUNNY   68  49  50 N7        30.13F
ALMA           CLOUDY    55  50  83 NE5       30.20S
ANN ARBOR      PTSUNNY   68  50  52 VRB7      30.13F
BAD AXE        CLOUDY    53  44  70 N7        30.21S
CARO           CLOUDY    58  47  66 N7        30.18S
DETROIT CITY   PTSUNNY   67  49  52 N6        30.14F
DETROIT        PTSUNNY   68  51  54 NW9       30.14F
FLINT          PTSUNNY   61  51  70 NE10      30.17F
GROSSE ILE     MOSUNNY   66  54  63 E7        30.12F
HILLSDALE      MOSUNNY   68  50  51 N5        30.13F
HOWELL         PTSUNNY   62  52  68 N7        30.15F

CITY           SKY/WX    TMP DP  RH WIND       PRES   REMARKS
JACKSON        PTSUNNY   68  50  52 CALM      30.14F
LAMBERTVILLE   PTSUNNY   68  52  56 NE5       30.13S
LANSING        MOSUNNY   62  52  69 N8        30.17F
LAPEER         CLOUDY    56  48  72 CALM      30.18F
MASON          PTSUNNY   62  51  67 N7        30.15F
MONROE         MOSUNNY   66  52  59 CALM      30.11S
MT. CLEMENS    PTSUNNY   62  54  77 N9        30.14S
PONTIAC        PTSUNNY   64  50  60 NW3       30.15S
PORT HOPE        N/A     53  42  66 N10       30.20S
PORT HURON     CLOUDY    55  48  76 NE10G16   30.18S
TRI CITIES     CLOUDY    56  46  69 NE13      30.21F
TROY           MOSUNNY   64  51  62 NE8       30.17S
SAGINAW HB     CLOUDY    59  46  63 NE8       30.19S
$$
MIZ043>046-050>051-056>058-064>065-071>073-077>080-182100-
SOUTHWEST LOWER MICHIGAN

CITY           SKY/WX    TMP DP  RH WIND       PRES   REMARKS
BATTLE CREEK   MOSUNNY   68  50  52 CALM      30.15S
BENTON HARBOR  SUNNY     66  49  54 VRB7      30.13F
BIG RAPIDS     PTSUNNY   58  53  82 S3        30.17S
COLDWATER      MOSUNNY   68  51  54 NE5       30.13S
FREMONT        MOCLDY    64  52  63 SE5       30.15F
HOLLAND        MOSUNNY   70  53  54 NW7       30.14F
GRAND RAPIDS   PTSUNNY   68  55  63 NE9       30.15F
IONIA          CLOUDY    61  53  74 NE9       30.16S
KALAMAZOO      MOSUNNY   69  50  50 N3        30.14F
LUDINGTON      MOSUNNY   62  51  68 SW3       30.16F
MARSHALL       MOSUNNY   67  50  53 NW6       30.13F
MOUNT PLEASANT CLOUDY    54  49  83 E3        30.20S
MUSKEGON       MOSUNNY   67  53  61 VRB6      30.15F
SOUTH HAVEN    SUNNY     68  52  56 NW7       30.14S
$$
MIZ016>042-182100-
NORTHERN LOWER MICHIGAN

CITY           SKY/WX    TMP DP  RH WIND       PRES   REMARKS
ALPENA         CLOUDY    51  38  60 NE7       30.22F
BEAVER ISLAND  SUNNY     55  40  57 E6        30.20F
CADILLAC       MOSUNNY   62  48  60 W5        30.16S
CHARLEVOIX     SUNNY     56  41  56 NE7       30.22F
FRANKFORT      SUNNY     60  44  56 N6        30.18S
GAYLORD        MOSUNNY   54  38  54 NE5       30.19F
GRAYLING       SUNNY     55  40  56 CALM      30.19F
HARBOR SPRINGS SUNNY     57  36  46 NE5       30.20S
HOUGHTON LAKE  SUNNY     57  41  55 SW6       30.19F
MANISTEE       SUNNY     59  46  63 N8        30.18F
OSCODA         CLOUDY    52  40  64 NE8       30.21F
PELLSTON       MOSUNNY   56  36  47 VRB5      30.21F
ROGERS CITY    MOSUNNY   48  39  71 NE9       30.25S
TRAVERSE CITY  MOSUNNY   59  43  55 N10       30.17S
$$
MIZ007>008-015-182100-
EASTERN UPPER MICHIGAN

CITY           SKY/WX    TMP DP  RH WIND       PRES   REMARKS
KINROSS        PTSUNNY   52  36  54 S9        30.22F
MACKINAC ISLAN SUNNY     50  38  63 E10G17    30.22S
NEWBERRY       MOSUNNY   53  37  54 S7        30.19F
S. S. MARIE    SUNNY     51  33  50 SE6       30.21F
MUNISING         N/A     56  41  57 NE13      30.17F
$$
MIZ004>006-011>014-085-182100-
CENTRAL UPPER MICHIGAN

CITY           SKY/WX    TMP DP  RH WIND       PRES   REMARKS
MANISTIQUE     MOSUNNY   52  40  65 SE8       30.20F
ESCANABA       SUNNY     52  39  62 SE9       30.19F
MENOMINEE      SUNNY     54  43  66 SE8       30.18F
SAWYER-GWINN   SUNNY     55  36  47 SE9       30.16F
$$
MIZ001>003-009>011-084-182100-
WESTERN UPPER MICHIGAN

CITY           SKY/WX    TMP DP  RH WIND       PRES   REMARKS
IRON MOUNTAIN  MOSUNNY   58  40  51 SE5       30.14F
HOUGHTON       SUNNY     50  38  63 E12       30.15F
COPPER HARBOR    N/A     49  35  58 VRB7      30.17F
IRONWOOD       CLOUDY    54  46  76 SW6       30.11S
$$

ABBREVIATIONS USED IN REMARKS
   TC - TEMPERATURE IN CELSIUS
  WCI - WIND CHILL INDEX
   HX - HEAT INDEX
  VSB - VISIBILITY



USA.gov is the U.S. government's official web portal to all federal, state and local government web resources and services.